START_TIME,STEP,MOV.,M29,t_acc.,H22,t_acc.,H26,t_acc.,H30,t_acc.
1979-08-03 15:00:30.630 ,1,0,0.,24.0,0.,24.0,0.,24.0,0.,24.0
1979-08-03 15:00:54.630 ,2,1,0.,24.0,0.,24.0,0.,24.0,0.,24.0
1979-08-03 15:01:18.630 ,2,0,0.,24.0,0.,24.0,0.,24.0,0.,24.0
1979-08-03 15:01:42.630 ,3,1,0.,24.0,0.,24.0,0.,24.0,0.,24.0
1979-08-03 15:02:06.630 ,3,0,0.,24.0,0.,24.0,0.,24.0,0.,24.0
1979-08-03 15:02:30.630 ,4,1,0.,24.0,0.,24.0,0.,24.0,0.,24.0
1979-08-03 15:02:54.630 ,4,0,0.,24.0,0.,24.0,0.,24.0,0.,24.0
1979-08-03 15:03:18.630 ,5,1,0.,24.0,0.,24.0,0.,24.0,0.,24.0
1979-08-03 15:03:42.630 ,5,0,0.,24.0,0.,24.0,0.,24.0,0.,24.0
1979-08-03 15:04:06.630 ,6,1,0.,24.0,0.,24.0,0.,24.0,0.,24.0
1979-08-03 15:04:30.630 ,6,0,0.,24.0,0.,24.0,0.,24.0,0.,24.0
1979-08-03 15:04:54.630 ,7,1,0.,24.0,0.,24.0,0.,24.0,0.,24.0
1979-08-03 15:05:18.630 ,7,0,0.,24.0,0.,24.0,0.,24.0,0.,24.0
1979-08-03 15:05:42.630 ,7,1,0.,24.0,0.,24.0,0.,24.0,0.,24.0
1979-08-03 15:06:06.630 ,7,0,0.,24.0,0.,24.0,0.,24.0,0.,24.0
1979-08-03 15:06:30.630 ,6,1,1.,24.0,0.,24.0,0.,24.0,0.,24.0
1979-08-03 15:06:54.630 ,6,0,0.,24.0,0.,24.0,0.,24.0,0.,24.0
1979-08-03 15:07:18.630 ,5,1,0.,24.0,0.,24.0,0.,24.0,0.,24.0
1979-08-03 15:07:42.630 ,5,0,0.,24.0,0.,24.0,0.,24.0,0.,24.0
1979-08-03 15:08:06.630 ,4,1,0.,24.0,0.,24.0,0.,24.0,0.,24.0
1979-08-03 15:08:30.630 ,4,0,0.,24.0,0.,24.0,0.,24.0,0.,24.0
1979-08-03 15:08:54.630 ,3,1,0.,24.0,0.,24.0,0.,24.0,0.,24.0
1979-08-03 15:09:18.630 ,3,0,0.,24.0,0.,24.0,0.,24.0,0.,24.0
1979-08-03 15:09:42.630 ,2,1,0.,24.0,0.,24.0,0.,24.0,0.,24.0
1979-08-03 15:10:06.630 ,2,0,0.,24.0,0.,24.0,0.,24.0,0.,24.0
1979-08-03 15:10:30.630 ,1,1,0.,24.0,0.,24.0,0.,24.0,0.,24.0
1979-08-03 15:10:54.630 ,1,0,0.,24.0,0.,24.0,0.,24.0,0.,24.0
1979-08-03 15:11:18.630 ,0,1,0.,24.0,0.,24.0,0.,24.0,0.,24.0
1979-08-03 15:11:42.630 ,0,0,0.,24.0,0.,24.0,0.,24.0,0.,24.0
1979-08-03 15:12:06.630 ,0,1,0.,24.0,0.,24.0,0.,24.0,0.,24.0
1979-08-03 15:12:30.630 ,0,0,0.,24.0,0.,24.0,0.,24.0,0.,24.0
1979-08-03 15:12:54.630 ,1,1,0.,24.0,0.,24.0,0.,24.0,0.,24.0
1979-08-03 15:13:18.630 ,1,0,0.,24.0,0.,24.0,0.,24.0,0.,24.0
1979-08-03 15:13:42.630 ,2,1,0.,24.0,0.,24.0,0.,24.0,0.,24.0
1979-08-03 15:14:06.630 ,2,0,0.,24.0,0.,24.0,0.,24.0,0.,24.0
1979-08-03 15:14:30.630 ,3,1,1.,24.0,0.,24.0,0.,24.0,0.,24.0
1979-08-03 15:14:54.630 ,3,0,0.,24.0,0.,24.0,0.,24.0,0.,24.0
1979-08-03 15:15:18.630 ,4,1,0.,24.0,0.,24.0,0.,24.0,0.,24.0
1979-08-03 15:15:42.630 ,4,0,0.,24.0,0.,24.0,0.,24.0,0.,24.0
1979-08-03 15:16:06.630 ,5,1,0.,24.0,0.,24.0,0.,24.0,0.,24.0
1979-08-03 15:16:30.630 ,5,0,0.,24.0,0.,24.0,0.,24.0,0.,24.0
1979-08-03 15:16:54.630 ,6,1,0.,24.0,0.,24.0,0.,24.0,0.,24.0
1979-08-03 15:17:18.630 ,6,0,0.,24.0,0.,24.0,0.,24.0,0.,24.0
1979-08-03 15:17:42.630 ,7,1,0.,24.0,0.,24.0,0.,24.0,0.,24.0
1979-08-03 15:18:06.630 ,7,0,0.,24.0,0.,24.0,0.,24.0,0.,24.0
1979-08-03 15:18:30.630 ,7,1,0.,24.0,0.,24.0,0.,24.0,0.,24.0
1979-08-03 15:18:54.630 ,7,0,0.,24.0,0.,24.0,0.,24.0,0.,24.0
1979-08-03 15:19:18.630 ,6,1,0.,24.0,0.,24.0,0.,24.0,0.,24.0
1979-08-03 15:19:42.630 ,6,0,0.,24.0,0.,24.0,0.,24.0,0.,24.0
1979-08-03 15:20:06.630 ,5,1,0.,24.0,0.,24.0,0.,24.0,0.,24.0
1979-08-03 15:20:30.630 ,5,0,0.,24.0,0.,24.0,0.,24.0,0.,24.0
1979-08-03 15:20:54.630 ,4,1,0.,24.0,0.,24.0,0.,24.0,0.,24.0
1979-08-03 15:21:18.630 ,4,0,0.,24.0,0.,24.0,0.,24.0,0.,24.0
1979-08-03 15:21:42.630 ,3,1,0.,24.0,0.,24.0,0.,24.0,0.,24.0
1979-08-03 15:22:06.630 ,3,0,0.,24.0,0.,24.0,0.,24.0,0.,24.0
1979-08-03 15:22:30.630 ,2,1,0.,24.0,0.,24.0,0.,24.0,0.,24.0
1979-08-03 15:22:54.630 ,2,0,0.,24.0,0.,24.0,0.,24.0,0.,24.0
1979-08-03 15:23:18.630 ,1,1,0.,24.0,0.,24.0,0.,24.0,0.,24.0
1979-08-03 15:23:42.630 ,1,0,0.,24.0,0.,24.0,0.,24.0,0.,24.0
1979-08-03 15:24:06.630 ,0,1,0.,24.0,0.,24.0,0.,24.0,0.,24.0
1979-08-03 15:24:30.630 ,0,0,0.,24.0,0.,24.0,0.,24.0,0.,24.0
1979-08-03 15:24:54.630 ,0,1,0.,24.0,0.,24.0,0.,24.0,0.,24.0
1979-08-03 15:25:18.630 ,0,0,0.,24.0,0.,24.0,0.,24.0,0.,24.0
1979-08-03 15:25:42.630 ,1,1,0.,24.0,0.,24.0,0.,24.0,0.,24.0
1979-08-03 15:26:06.630 ,1,0,0.,24.0,0.,24.0,0.,24.0,0.,24.0
1979-08-03 15:26:30.630 ,2,1,0.,24.0,0.,24.0,0.,24.0,0.,24.0
1979-08-03 15:26:54.630 ,2,0,0.,24.0,0.,24.0,0.,24.0,0.,24.0
1979-08-03 15:27:18.630 ,3,1,0.,24.0,0.,24.0,0.,24.0,0.,24.0
1979-08-03 15:27:42.630 ,3,0,0.,24.0,0.,24.0,0.,24.0,0.,24.0
1979-08-03 15:28:06.630 ,4,1,0.,24.0,0.,24.0,0.,24.0,0.,24.0
1979-08-03 15:28:30.630 ,4,0,0.,24.0,0.,24.0,0.,24.0,0.,24.0
1979-08-03 15:28:54.630 ,5,1,0.,24.0,0.,24.0,0.,24.0,0.,24.0
1979-08-03 15:29:18.630 ,5,0,1.,24.0,0.,24.0,0.,24.0,0.,24.0
1979-08-03 15:29:42.630 ,6,1,0.,24.0,0.,24.0,0.,24.0,0.,24.0
1979-08-03 15:30:06.630 ,6,0,0.,24.0,0.,24.0,0.,24.0,0.,24.0
1979-08-03 15:30:30.630 ,7,0,0.,24.0,0.,24.0,0.,24.0,0.,24.0
1979-08-03 15:30:54.630 ,7,0,0.,24.0,0.,24.0,0.,24.0,0.,24.0
1979-08-03 15:31:18.630 ,5,1,0.,24.0,0.,24.0,0.,24.0,0.,24.0
1979-08-03 15:31:42.630 ,1,1,0.,24.0,0.,24.0,0.,24.0,0.,24.0
1979-08-03 15:32:06.630 ,2,1,0.,24.0,0.,24.0,0.,24.0,0.,24.0
1979-08-03 15:32:30.630 ,6,1,0.,24.0,0.,24.0,0.,24.0,0.,24.0
1979-08-03 15:32:54.630 ,5,1,0.,24.0,0.,24.0,0.,24.0,0.,24.0
1979-08-03 15:33:18.630 ,1,1,0.,24.0,0.,24.0,0.,24.0,0.,24.0
1979-08-03 15:47:22.830 ,0,0,0.,24.0,0.,24.0,0.,24.0,0.,24.0
1979-08-03 15:47:42.630 ,0,0,0.,24.0,0.,24.0,0.,24.0,0.,24.0
1979-08-03 15:48:06.630 ,1,1,0.,24.0,0.,24.0,0.,24.0,0.,24.0
1979-08-03 15:48:30.630 ,1,0,0.,24.0,0.,24.0,0.,24.0,0.,24.0
1979-08-03 15:48:54.630 ,2,1,0.,24.0,0.,24.0,0.,24.0,0.,24.0
1979-08-03 15:49:18.630 ,2,0,0.,24.0,0.,24.0,0.,24.0,0.,24.0
1979-08-03 15:49:42.630 ,3,1,0.,24.0,0.,24.0,0.,24.0,0.,24.0
1979-08-03 15:50:06.630 ,3,0,0.,24.0,0.,24.0,0.,24.0,0.,24.0
1979-08-03 15:50:30.630 ,4,1,0.,24.0,0.,24.0,0.,24.0,0.,24.0
1979-08-03 15:50:54.630 ,4,0,0.,24.0,0.,24.0,0.,24.0,0.,24.0
1979-08-03 15:51:18.630 ,5,1,0.,24.0,0.,24.0,0.,24.0,0.,24.0
1979-08-03 15:51:42.630 ,5,0,0.,24.0,0.,24.0,0.,24.0,0.,24.0
1979-08-03 15:52:06.630 ,6,1,0.,24.0,0.,24.0,0.,24.0,0.,24.0
1979-08-03 15:52:30.630 ,6,0,0.,24.0,0.,24.0,0.,24.0,0.,24.0
1979-08-03 15:52:54.630 ,7,1,0.,24.0,0.,24.0,0.,24.0,0.,24.0
1979-08-03 15:53:18.630 ,7,0,0.,24.0,0.,24.0,0.,24.0,0.,24.0
1979-08-03 15:53:42.630 ,7,1,0.,24.0,0.,24.0,0.,24.0,0.,24.0
1979-08-03 15:54:06.630 ,7,0,0.,24.0,0.,24.0,0.,24.0,0.,24.0
1979-08-03 15:54:30.630 ,6,1,0.,24.0,0.,24.0,0.,24.0,0.,24.0
1979-08-03 15:54:54.630 ,6,0,0.,24.0,0.,24.0,0.,24.0,0.,24.0
1979-08-03 15:55:18.630 ,5,1,0.,24.0,0.,24.0,0.,24.0,0.,24.0
1979-08-03 15:55:42.630 ,5,0,0.,24.0,0.,24.0,0.,24.0,0.,24.0
1979-08-03 15:56:06.630 ,4,1,0.,24.0,0.,24.0,0.,24.0,0.,24.0
1979-08-03 15:56:30.630 ,4,0,0.,24.0,0.,24.0,0.,24.0,0.,24.0
1979-08-03 15:56:54.630 ,3,1,0.,24.0,0.,24.0,0.,24.0,1.,24.0
1979-08-03 15:57:18.630 ,3,0,0.,24.0,0.,24.0,0.,24.0,0.,24.0
1979-08-03 15:57:42.630 ,2,1,0.,24.0,0.,24.0,0.,24.0,0.,24.0
1979-08-03 15:58:06.630 ,2,0,0.,24.0,0.,24.0,0.,24.0,0.,24.0
1979-08-03 15:58:30.630 ,1,1,0.,24.0,0.,24.0,0.,24.0,0.,24.0
1979-08-03 15:58:54.630 ,1,0,0.,24.0,0.,24.0,0.,24.0,0.,24.0
1979-08-03 15:59:18.630 ,0,1,0.,24.0,0.,24.0,0.,24.0,0.,24.0
1979-08-03 15:59:42.630 ,0,0,0.,24.0,0.,24.0,0.,24.0,0.,24.0
1979-08-03 16:00:06.630 ,0,1,0.,24.0,0.,24.0,0.,24.0,0.,24.0
1979-08-03 16:00:30.630 ,0,0,0.,24.0,0.,24.0,0.,24.0,0.,24.0
1979-08-03 16:00:54.630 ,1,1,0.,24.0,0.,24.0,0.,24.0,0.,24.0
1979-08-03 16:01:18.630 ,1,0,0.,24.0,0.,24.0,0.,24.0,0.,24.0
1979-08-03 16:01:42.630 ,2,1,0.,24.0,0.,24.0,0.,24.0,0.,24.0
1979-08-03 16:02:06.630 ,2,0,0.,24.0,0.,24.0,0.,24.0,0.,24.0
1979-08-03 16:02:30.630 ,3,1,0.,24.0,0.,24.0,0.,24.0,0.,24.0
1979-08-03 16:02:54.630 ,3,0,0.,24.0,0.,24.0,0.,24.0,0.,24.0
1979-08-03 16:03:18.630 ,4,1,0.,24.0,0.,24.0,0.,24.0,0.,24.0
1979-08-03 16:03:42.630 ,4,0,0.,24.0,0.,24.0,0.,24.0,0.,24.0
1979-08-03 16:04:06.630 ,5,1,0.,24.0,0.,24.0,0.,24.0,0.,24.0
1979-08-03 16:04:30.630 ,5,0,0.,24.0,0.,24.0,0.,24.0,0.,24.0
1979-08-03 16:04:54.630 ,6,1,0.,24.0,0.,24.0,0.,24.0,0.,24.0
1979-08-03 16:05:18.630 ,6,0,0.,24.0,0.,24.0,0.,24.0,0.,24.0
1979-08-03 16:05:42.630 ,7,1,0.,24.0,0.,24.0,0.,24.0,0.,24.0
1979-08-03 16:06:06.630 ,7,0,0.,24.0,0.,24.0,0.,24.0,0.,24.0
1979-08-03 16:06:30.630 ,7,1,1.,24.0,0.,24.0,0.,24.0,0.,24.0
1979-08-03 16:06:54.630 ,7,0,0.,24.0,0.,24.0,0.,24.0,0.,24.0
1979-08-03 16:07:18.630 ,6,1,0.,24.0,0.,24.0,0.,24.0,0.,24.0
1979-08-03 16:07:42.630 ,6,0,0.,24.0,0.,24.0,0.,24.0,0.,24.0
1979-08-03 16:08:06.630 ,5,1,0.,24.0,0.,24.0,0.,24.0,0.,24.0
1979-08-03 16:08:30.630 ,5,0,0.,24.0,0.,24.0,0.,24.0,0.,24.0
1979-08-03 16:08:54.630 ,4,1,0.,24.0,0.,24.0,0.,24.0,0.,24.0
1979-08-03 16:09:18.630 ,4,0,0.,24.0,0.,24.0,0.,24.0,0.,24.0
1979-08-03 16:09:42.630 ,3,1,0.,24.0,0.,24.0,0.,24.0,0.,24.0
1979-08-03 16:10:06.630 ,3,0,0.,24.0,0.,24.0,0.,24.0,0.,24.0
1979-08-03 16:10:30.630 ,2,1,0.,24.0,0.,24.0,0.,24.0,0.,24.0
1979-08-03 16:10:54.630 ,2,0,0.,24.0,0.,24.0,0.,24.0,0.,24.0
1979-08-03 16:11:18.630 ,1,1,0.,24.0,0.,24.0,0.,24.0,0.,24.0
1979-08-03 16:11:42.630 ,1,0,0.,24.0,0.,24.0,0.,24.0,0.,24.0
1979-08-03 16:12:06.630 ,0,1,0.,24.0,0.,24.0,0.,24.0,0.,24.0
1979-08-03 16:12:30.630 ,0,0,1.,24.0,0.,24.0,0.,24.0,0.,24.0
1979-08-03 16:12:54.630 ,0,1,0.,24.0,0.,24.0,0.,24.0,0.,24.0
1979-08-03 16:13:18.630 ,0,0,0.,24.0,0.,24.0,0.,24.0,0.,24.0
1979-08-03 16:13:42.630 ,1,1,0.,24.0,0.,24.0,0.,24.0,0.,24.0
1979-08-03 16:14:06.630 ,1,0,0.,24.0,0.,24.0,0.,24.0,0.,24.0
1979-08-03 16:14:30.630 ,2,1,0.,24.0,0.,24.0,0.,24.0,0.,24.0
1979-08-03 16:14:54.630 ,2,0,0.,24.0,0.,24.0,0.,24.0,0.,24.0
1979-08-03 16:15:18.630 ,3,1,0.,24.0,0.,24.0,0.,24.0,0.,24.0
1979-08-03 16:15:42.630 ,3,0,0.,24.0,0.,24.0,0.,24.0,0.,24.0
1979-08-03 16:16:06.630 ,4,1,0.,24.0,0.,24.0,0.,24.0,0.,24.0
1979-08-03 16:16:30.630 ,4,0,0.,24.0,0.,24.0,0.,24.0,0.,24.0
1979-08-03 16:16:54.630 ,5,1,0.,24.0,0.,24.0,0.,24.0,0.,24.0
1979-08-03 16:17:18.630 ,5,0,0.,24.0,0.,24.0,0.,24.0,0.,24.0
1979-08-03 16:17:42.630 ,6,1,0.,24.0,0.,24.0,0.,24.0,0.,24.0
1979-08-03 16:18:06.630 ,6,0,0.,24.0,0.,24.0,0.,24.0,0.,24.0
1979-08-03 16:18:30.630 ,7,0,0.,24.0,0.,24.0,0.,24.0,0.,24.0
1979-08-03 16:18:54.630 ,7,0,0.,24.0,0.,24.0,0.,24.0,0.,24.0
1979-08-03 16:19:18.630 ,5,1,0.,24.0,0.,24.0,0.,24.0,0.,24.0
1979-08-03 16:19:42.630 ,1,1,0.,24.0,0.,24.0,0.,24.0,0.,24.0
1979-08-03 16:20:06.630 ,2,1,0.,24.0,0.,24.0,0.,24.0,0.,24.0
1979-08-03 16:20:30.630 ,6,1,0.,24.0,0.,24.0,0.,24.0,0.,24.0
1979-08-03 16:20:54.630 ,5,1,0.,24.0,0.,24.0,0.,24.0,0.,24.0
1979-08-03 16:21:18.630 ,1,1,0.,24.0,0.,24.0,0.,24.0,0.,24.0
1979-08-03 16:21:42.630 ,2,1,0.,24.0,0.,24.0,0.,24.0,0.,24.0
1979-08-03 16:22:06.630 ,6,1,0.,24.0,0.,24.0,0.,24.0,0.,24.0
1979-08-03 16:22:30.630 ,5,1,0.,24.0,0.,24.0,0.,24.0,0.,24.0
1979-08-03 16:22:54.630 ,1,1,1.,24.0,0.,24.0,0.,24.0,0.,24.0
1979-08-03 16:23:18.630 ,2,1,0.,24.0,0.,24.0,0.,24.0,0.,24.0
1979-08-03 16:23:42.630 ,6,1,0.,24.0,0.,24.0,0.,24.0,0.,24.0
1979-08-03 16:24:06.630 ,5,1,0.,24.0,0.,24.0,0.,24.0,0.,24.0
1979-08-03 16:24:30.630 ,1,1,0.,24.0,0.,24.0,0.,24.0,0.,24.0
1979-08-03 16:24:54.630 ,2,1,0.,24.0,0.,24.0,0.,24.0,0.,24.0
1979-08-03 16:25:18.630 ,6,1,0.,24.0,0.,24.0,0.,24.0,0.,24.0
1979-08-03 16:25:42.630 ,5,1,0.,24.0,0.,24.0,0.,24.0,0.,24.0
1979-08-03 16:26:06.630 ,1,1,0.,24.0,0.,24.0,0.,24.0,0.,24.0
1979-08-03 16:26:30.630 ,2,1,0.,24.0,0.,24.0,0.,24.0,0.,24.0
1979-08-03 16:26:54.630 ,6,1,0.,24.0,0.,24.0,0.,24.0,0.,24.0
1979-08-03 16:27:18.630 ,5,1,0.,24.0,0.,24.0,0.,24.0,0.,24.0
1979-08-03 16:27:42.630 ,1,1,0.,24.0,0.,24.0,0.,24.0,0.,24.0
1979-08-03 16:28:06.630 ,2,1,0.,24.0,0.,24.0,0.,24.0,0.,24.0
1979-08-03 16:28:30.630 ,6,1,0.,24.0,0.,24.0,0.,24.0,0.,24.0
1979-08-03 16:28:54.630 ,5,1,0.,24.0,0.,24.0,0.,24.0,0.,24.0
1979-08-03 16:29:18.630 ,1,1,0.,24.0,0.,24.0,0.,24.0,0.,24.0
1979-08-03 16:29:42.630 ,0,0,0.,24.0,0.,24.0,0.,24.0,0.,24.0
1979-08-03 16:30:06.630 ,0,0,0.,24.0,0.,24.0,0.,24.0,0.,24.0
1979-08-03 16:30:30.630 ,5,1,0.,24.0,0.,24.0,0.,24.0,0.,24.0
1979-08-03 16:30:54.630 ,5,0,0.,24.0,0.,24.0,0.,24.0,0.,24.0
1979-08-03 16:31:18.630 ,4,1,0.,24.0,0.,24.0,0.,24.0,0.,24.0
1979-08-03 16:31:42.630 ,4,0,0.,24.0,0.,24.0,0.,24.0,0.,24.0
1979-08-03 16:32:06.630 ,3,1,0.,24.0,0.,24.0,0.,24.0,0.,24.0
1979-08-03 16:32:30.630 ,3,0,0.,24.0,0.,24.0,0.,24.0,0.,24.0
1979-08-03 16:32:54.630 ,2,1,0.,24.0,0.,24.0,0.,24.0,0.,24.0
1979-08-03 16:33:18.630 ,2,0,0.,24.0,0.,24.0,0.,24.0,0.,24.0
1979-08-03 16:33:42.630 ,1,1,0.,24.0,0.,24.0,0.,24.0,0.,24.0
1979-08-03 16:34:06.630 ,1,0,0.,24.0,0.,24.0,0.,24.0,0.,24.0
1979-08-03 16:34:30.630 ,0,1,0.,24.0,0.,24.0,0.,24.0,0.,24.0
1979-08-03 16:34:54.630 ,0,0,0.,24.0,0.,24.0,0.,24.0,0.,24.0
1979-08-03 16:35:18.630 ,0,1,0.,24.0,0.,24.0,0.,24.0,0.,24.0
1979-08-03 16:35:42.630 ,0,0,0.,24.0,0.,24.0,0.,24.0,0.,24.0
1979-08-03 16:36:06.630 ,1,1,0.,24.0,0.,24.0,0.,24.0,0.,24.0
1979-08-03 16:36:30.630 ,1,0,0.,24.0,0.,24.0,0.,24.0,0.,24.0
1979-08-03 16:36:54.630 ,2,1,0.,24.0,0.,24.0,0.,24.0,0.,24.0
1979-08-03 16:37:18.630 ,2,0,0.,24.0,0.,24.0,0.,24.0,0.,24.0
1979-08-03 16:37:42.630 ,3,1,0.,24.0,0.,24.0,0.,24.0,0.,24.0
1979-08-03 16:38:06.630 ,3,0,0.,24.0,0.,24.0,0.,24.0,0.,24.0
1979-08-03 16:38:30.630 ,4,1,0.,24.0,0.,24.0,0.,24.0,0.,24.0
1979-08-03 16:38:54.630 ,4,0,0.,24.0,0.,24.0,0.,24.0,0.,24.0
1979-08-03 16:39:18.630 ,5,1,0.,24.0,0.,24.0,0.,24.0,0.,24.0
1979-08-03 16:39:42.630 ,5,0,0.,24.0,0.,24.0,0.,24.0,0.,24.0
1979-08-03 16:40:06.630 ,6,1,0.,24.0,0.,24.0,0.,24.0,0.,24.0
1979-08-03 16:40:30.630 ,6,0,0.,24.0,0.,24.0,0.,24.0,0.,24.0
1979-08-03 16:40:54.630 ,7,1,0.,24.0,0.,24.0,0.,24.0,0.,24.0
1979-08-03 16:41:18.630 ,7,0,0.,24.0,0.,24.0,0.,24.0,0.,24.0
1979-08-03 16:41:42.630 ,7,1,0.,24.0,0.,24.0,0.,24.0,0.,24.0
1979-08-03 16:42:06.630 ,7,0,0.,24.0,0.,24.0,0.,24.0,0.,24.0
1979-08-03 16:42:30.630 ,6,1,0.,24.0,0.,24.0,0.,24.0,0.,24.0
1979-08-03 16:42:54.630 ,6,0,0.,24.0,0.,24.0,0.,24.0,0.,24.0
1979-08-03 16:43:18.630 ,5,1,0.,24.0,0.,24.0,0.,24.0,0.,24.0
1979-08-03 16:43:42.630 ,5,0,0.,24.0,0.,24.0,0.,24.0,0.,24.0
1979-08-03 16:44:06.630 ,4,1,0.,24.0,0.,24.0,0.,24.0,0.,24.0
1979-08-03 16:44:30.630 ,4,0,0.,24.0,0.,24.0,0.,24.0,0.,24.0
1979-08-03 16:44:54.630 ,3,1,0.,24.0,0.,24.0,0.,24.0,0.,24.0
1979-08-03 16:45:18.630 ,3,0,0.,24.0,0.,24.0,0.,24.0,0.,24.0
1979-08-03 16:45:42.630 ,2,1,0.,24.0,0.,24.0,0.,24.0,0.,24.0
1979-08-03 16:46:06.630 ,2,0,0.,24.0,0.,24.0,0.,24.0,0.,24.0
1979-08-03 16:46:30.630 ,1,1,0.,24.0,0.,24.0,0.,24.0,0.,24.0
1979-08-03 16:46:54.630 ,1,0,0.,24.0,0.,24.0,0.,24.0,0.,24.0
1979-08-03 16:47:18.630 ,0,1,0.,24.0,0.,24.0,0.,24.0,0.,24.0
1979-08-03 16:47:42.630 ,0,0,1.,24.0,0.,24.0,0.,24.0,0.,24.0
1979-08-03 16:48:06.630 ,0,1,0.,24.0,0.,24.0,0.,24.0,0.,24.0
1979-08-03 16:48:30.630 ,0,0,0.,24.0,0.,24.0,0.,24.0,0.,24.0
1979-08-03 16:48:54.630 ,1,1,0.,24.0,0.,24.0,0.,24.0,0.,24.0
1979-08-03 16:49:18.630 ,1,0,0.,24.0,0.,24.0,0.,24.0,0.,24.0
1979-08-03 16:49:42.630 ,2,1,0.,24.0,0.,24.0,0.,24.0,0.,24.0
1979-08-03 16:50:06.630 ,2,0,0.,24.0,0.,24.0,0.,24.0,0.,24.0
1979-08-03 16:50:30.630 ,3,1,0.,24.0,0.,24.0,0.,24.0,0.,24.0
1979-08-03 16:50:54.630 ,3,0,0.,24.0,0.,24.0,0.,24.0,0.,24.0
1979-08-03 16:51:18.630 ,4,1,0.,24.0,0.,24.0,0.,24.0,0.,24.0
1979-08-03 16:51:42.630 ,4,0,1.,24.0,0.,24.0,0.,24.0,0.,24.0
1979-08-03 16:52:06.630 ,5,1,0.,24.0,0.,24.0,0.,24.0,0.,24.0
1979-08-03 16:52:30.630 ,5,0,0.,24.0,0.,24.0,0.,24.0,0.,24.0
1979-08-03 16:52:54.630 ,6,1,0.,24.0,0.,24.0,0.,24.0,0.,24.0
1979-08-03 16:53:18.630 ,6,0,0.,24.0,0.,24.0,0.,24.0,0.,24.0
1979-08-03 16:53:42.630 ,7,1,0.,24.0,0.,24.0,0.,24.0,0.,24.0
1979-08-03 16:54:06.630 ,7,0,0.,24.0,0.,24.0,0.,24.0,0.,24.0
1979-08-03 16:54:30.630 ,7,1,0.,24.0,0.,24.0,0.,24.0,0.,24.0
1979-08-03 16:54:54.630 ,7,0,1.,24.0,0.,24.0,0.,24.0,0.,24.0
1979-08-03 16:55:18.630 ,6,1,0.,24.0,0.,24.0,0.,24.0,0.,24.0
1979-08-03 16:55:42.630 ,6,0,0.,24.0,0.,24.0,0.,24.0,0.,24.0
1979-08-03 16:56:06.630 ,5,1,0.,24.0,0.,24.0,0.,24.0,0.,24.0
1979-08-03 16:56:30.630 ,5,0,0.,24.0,0.,24.0,0.,24.0,0.,24.0
1979-08-03 16:56:54.630 ,4,1,0.,24.0,0.,24.0,0.,24.0,0.,24.0
1979-08-03 16:57:18.630 ,4,0,0.,24.0,0.,24.0,0.,24.0,0.,24.0
1979-08-03 16:57:42.630 ,3,1,0.,24.0,0.,24.0,0.,24.0,0.,24.0
1979-08-03 16:58:06.630 ,3,0,1.,24.0,0.,24.0,0.,24.0,0.,24.0
1979-08-03 16:58:30.630 ,2,1,0.,24.0,0.,24.0,0.,24.0,0.,24.0
1979-08-03 16:58:54.630 ,0,0,0.,24.0,0.,24.0,0.,24.0,0.,24.0
1979-08-03 16:59:18.630 ,1,1,0.,24.0,0.,24.0,0.,24.0,0.,24.0
1979-08-03 16:59:42.630 ,1,0,0.,24.0,0.,24.0,0.,24.0,0.,24.0
1979-08-03 17:00:06.630 ,0,1,0.,24.0,0.,24.0,0.,24.0,0.,24.0
1979-08-03 17:00:30.630 ,0,0,0.,24.0,0.,24.0,0.,24.0,0.,24.0
1979-08-03 17:00:54.630 ,0,1,0.,24.0,0.,24.0,0.,24.0,0.,24.0
1979-08-03 17:01:18.630 ,0,0,0.,24.0,0.,24.0,0.,24.0,0.,24.0
1979-08-03 17:01:42.630 ,1,1,0.,24.0,0.,24.0,0.,24.0,0.,24.0
1979-08-03 17:02:06.630 ,1,0,0.,24.0,0.,24.0,0.,24.0,0.,24.0
1979-08-03 17:02:30.630 ,2,1,0.,24.0,0.,24.0,0.,24.0,0.,24.0
1979-08-03 17:02:54.630 ,2,0,0.,24.0,0.,24.0,0.,24.0,0.,24.0
1979-08-03 17:03:18.630 ,3,1,0.,24.0,0.,24.0,0.,24.0,0.,24.0
1979-08-03 17:03:42.630 ,3,0,0.,24.0,0.,24.0,0.,24.0,0.,24.0
1979-08-03 17:04:06.630 ,4,1,0.,24.0,0.,24.0,0.,24.0,0.,24.0
1979-08-03 17:04:30.630 ,4,0,0.,24.0,0.,24.0,0.,24.0,0.,24.0
1979-08-03 17:04:54.630 ,5,1,0.,24.0,0.,24.0,0.,24.0,0.,24.0
1979-08-03 17:05:18.630 ,5,0,0.,24.0,0.,24.0,0.,24.0,0.,24.0
1979-08-03 17:05:42.630 ,6,1,0.,24.0,0.,24.0,0.,24.0,0.,24.0
1979-08-03 17:06:06.630 ,6,0,0.,24.0,0.,24.0,0.,24.0,0.,24.0
1979-08-03 17:06:30.630 ,7,0,0.,24.0,0.,24.0,0.,24.0,0.,24.0
1979-08-03 17:06:54.630 ,7,0,0.,24.0,0.,24.0,0.,24.0,0.,24.0
1979-08-03 17:07:18.630 ,5,1,0.,24.0,0.,24.0,0.,24.0,0.,24.0
1979-08-03 17:07:42.630 ,1,1,0.,24.0,0.,24.0,0.,24.0,0.,24.0
1979-08-03 17:08:06.630 ,2,1,0.,24.0,0.,24.0,0.,24.0,0.,24.0
1979-08-03 17:08:30.630 ,6,1,0.,24.0,0.,24.0,0.,24.0,0.,24.0
1979-08-03 17:08:54.630 ,5,1,0.,24.0,0.,24.0,0.,24.0,0.,24.0
1979-08-03 17:09:18.630 ,1,1,0.,24.0,0.,24.0,0.,24.0,0.,24.0
1979-08-03 17:09:42.630 ,2,1,0.,24.0,0.,24.0,0.,24.0,0.,24.0
1979-08-03 17:10:06.630 ,6,1,0.,24.0,0.,24.0,0.,24.0,0.,24.0
1979-08-03 17:10:30.630 ,5,1,0.,24.0,0.,24.0,0.,24.0,0.,24.0
1979-08-03 17:10:54.630 ,1,1,0.,24.0,0.,24.0,0.,24.0,0.,24.0
1979-08-03 17:11:18.630 ,2,1,0.,24.0,0.,24.0,0.,24.0,0.,24.0
1979-08-03 17:11:42.630 ,6,1,0.,24.0,0.,24.0,0.,24.0,0.,24.0
1979-08-03 17:12:06.630 ,5,1,0.,24.0,0.,24.0,0.,24.0,0.,24.0
1979-08-03 17:12:30.630 ,1,1,0.,24.0,0.,24.0,0.,24.0,0.,24.0
1979-08-03 17:12:54.630 ,2,1,0.,24.0,0.,24.0,0.,24.0,0.,24.0
1979-08-03 17:13:18.630 ,6,1,0.,24.0,0.,24.0,0.,24.0,0.,24.0
1979-08-03 17:13:42.630 ,5,1,1.,24.0,0.,24.0,0.,24.0,0.,24.0
1979-08-03 17:14:06.630 ,1,1,0.,24.0,0.,24.0,0.,24.0,0.,24.0
1979-08-03 17:14:30.630 ,2,1,0.,24.0,0.,24.0,0.,24.0,0.,24.0
1979-08-03 17:14:54.630 ,6,1,0.,24.0,0.,24.0,0.,24.0,0.,24.0
1979-08-03 17:15:18.630 ,5,1,0.,24.0,0.,24.0,0.,24.0,0.,24.0
1979-08-03 17:15:42.630 ,1,1,0.,24.0,0.,24.0,0.,24.0,0.,24.0
1979-08-03 17:16:06.630 ,2,1,0.,24.0,0.,24.0,0.,24.0,0.,24.0
1979-08-03 17:16:30.630 ,6,1,0.,24.0,0.,24.0,0.,24.0,0.,24.0
1979-08-03 17:16:54.630 ,5,1,0.,24.0,0.,24.0,0.,24.0,0.,24.0
1979-08-03 17:17:18.630 ,1,1,0.,24.0,0.,24.0,0.,24.0,0.,24.0
1979-08-03 17:17:42.630 ,0,0,0.,24.0,0.,24.0,0.,24.0,0.,24.0
1979-08-03 17:18:06.630 ,0,0,0.,24.0,0.,24.0,0.,24.0,0.,24.0
1979-08-03 17:18:30.630 ,5,1,0.,24.0,0.,24.0,0.,24.0,0.,24.0
1979-08-03 17:18:54.630 ,5,0,0.,24.0,0.,24.0,0.,24.0,0.,24.0
1979-08-03 17:19:18.630 ,4,1,0.,24.0,0.,24.0,0.,24.0,0.,24.0
1979-08-03 17:19:42.630 ,4,0,0.,24.0,0.,24.0,0.,24.0,0.,24.0
1979-08-03 17:20:06.630 ,3,1,0.,24.0,0.,24.0,0.,24.0,0.,24.0
1979-08-03 17:20:30.630 ,3,0,0.,24.0,0.,24.0,0.,24.0,0.,24.0
1979-08-03 17:20:54.630 ,2,1,0.,24.0,0.,24.0,0.,24.0,0.,24.0
1979-08-03 17:21:18.630 ,2,0,0.,24.0,0.,24.0,0.,24.0,0.,24.0
1979-08-03 17:21:42.630 ,1,1,0.,24.0,0.,24.0,0.,24.0,0.,24.0
1979-08-03 17:22:06.630 ,1,0,0.,24.0,0.,24.0,0.,24.0,0.,24.0
1979-08-03 17:22:30.630 ,0,1,0.,24.0,0.,24.0,0.,24.0,0.,24.0
1979-08-03 17:22:54.630 ,0,0,0.,24.0,0.,24.0,0.,24.0,0.,24.0
1979-08-03 17:23:18.630 ,0,1,1.,24.0,0.,24.0,0.,24.0,0.,24.0
1979-08-03 17:23:42.630 ,0,0,0.,24.0,0.,24.0,0.,24.0,0.,24.0
1979-08-03 17:24:06.630 ,1,1,0.,24.0,0.,24.0,0.,24.0,0.,24.0
1979-08-03 17:24:30.630 ,1,0,0.,24.0,0.,24.0,0.,24.0,0.,24.0
1979-08-03 17:24:54.630 ,2,1,0.,24.0,0.,24.0,0.,24.0,0.,24.0
1979-08-03 17:25:18.630 ,2,0,0.,24.0,0.,24.0,0.,24.0,0.,24.0
1979-08-03 17:25:42.630 ,3,1,0.,24.0,0.,24.0,0.,24.0,0.,24.0
1979-08-03 17:26:06.630 ,3,0,0.,24.0,0.,24.0,0.,24.0,0.,24.0
1979-08-03 17:26:30.630 ,4,1,0.,24.0,0.,24.0,0.,24.0,0.,24.0
1979-08-03 17:26:54.630 ,4,0,0.,24.0,0.,24.0,0.,24.0,0.,24.0
1979-08-03 17:27:18.630 ,5,1,0.,24.0,0.,24.0,0.,24.0,0.,24.0
1979-08-03 17:27:42.630 ,5,0,0.,24.0,0.,24.0,0.,24.0,0.,24.0
1979-08-03 17:28:06.630 ,6,1,0.,24.0,0.,24.0,0.,24.0,0.,24.0
1979-08-03 17:28:30.630 ,6,0,1.,24.0,0.,24.0,0.,24.0,0.,24.0
1979-08-03 17:28:54.630 ,7,1,0.,24.0,0.,24.0,0.,24.0,0.,24.0
1979-08-03 17:29:18.630 ,7,0,0.,24.0,0.,24.0,0.,24.0,0.,24.0
1979-08-03 17:29:42.630 ,7,1,0.,24.0,0.,24.0,0.,24.0,0.,24.0
1979-08-03 17:30:06.630 ,7,0,0.,24.0,0.,24.0,0.,24.0,0.,24.0
1979-08-03 17:30:30.630 ,6,1,0.,24.0,0.,24.0,0.,24.0,0.,24.0
1979-08-03 17:30:54.630 ,6,0,0.,24.0,0.,24.0,0.,24.0,0.,24.0
1979-08-03 17:31:18.630 ,5,1,0.,24.0,0.,24.0,0.,24.0,0.,24.0
1979-08-03 17:31:42.630 ,5,0,0.,24.0,0.,24.0,0.,24.0,0.,24.0
1979-08-03 17:32:06.630 ,4,1,0.,24.0,0.,24.0,0.,24.0,0.,24.0
1979-08-03 17:32:30.630 ,4,0,1.,24.0,0.,24.0,0.,24.0,0.,24.0
1979-08-03 17:32:54.630 ,3,1,0.,24.0,0.,24.0,0.,24.0,0.,24.0
1979-08-03 17:33:18.630 ,3,0,0.,24.0,0.,24.0,0.,24.0,0.,24.0
1979-08-03 17:33:42.630 ,2,1,0.,24.0,0.,24.0,0.,24.0,0.,24.0
1979-08-03 17:34:06.630 ,2,0,0.,24.0,0.,24.0,0.,24.0,0.,24.0
1979-08-03 17:34:30.630 ,1,1,0.,24.0,0.,24.0,0.,24.0,0.,24.0
1979-08-03 17:34:54.630 ,1,0,0.,24.0,0.,24.0,0.,24.0,0.,24.0
1979-08-03 17:35:18.630 ,0,1,0.,24.0,0.,24.0,0.,24.0,0.,24.0
1979-08-03 17:35:42.630 ,0,0,0.,24.0,0.,24.0,0.,24.0,0.,24.0
1979-08-03 17:36:06.630 ,0,1,0.,24.0,0.,24.0,0.,24.0,0.,24.0
1979-08-03 17:36:30.630 ,0,0,0.,24.0,0.,24.0,0.,24.0,0.,24.0
1979-08-03 17:36:54.630 ,1,1,0.,24.0,0.,24.0,0.,24.0,0.,24.0
1979-08-03 17:37:18.630 ,1,0,0.,24.0,0.,24.0,0.,24.0,0.,24.0
1979-08-03 17:37:42.630 ,2,1,0.,24.0,0.,24.0,0.,24.0,0.,24.0
1979-08-03 17:38:06.630 ,2,0,0.,24.0,0.,24.0,0.,24.0,0.,24.0
1979-08-03 17:38:30.630 ,3,1,0.,24.0,0.,24.0,0.,24.0,0.,24.0
1979-08-03 17:38:54.630 ,3,0,0.,24.0,0.,24.0,0.,24.0,0.,24.0
1979-08-03 17:39:18.630 ,4,1,0.,24.0,0.,24.0,0.,24.0,0.,24.0
1979-08-03 17:39:42.630 ,4,0,0.,24.0,0.,24.0,0.,24.0,0.,24.0
1979-08-03 17:40:06.630 ,5,1,0.,24.0,0.,24.0,0.,24.0,0.,24.0
1979-08-03 17:40:30.630 ,5,0,0.,24.0,0.,24.0,0.,24.0,0.,24.0
1979-08-03 17:40:54.630 ,6,1,0.,24.0,0.,24.0,0.,24.0,0.,24.0
1979-08-03 17:41:18.630 ,6,0,0.,24.0,0.,24.0,0.,24.0,0.,24.0
1979-08-03 17:41:42.630 ,7,1,0.,24.0,0.,24.0,0.,24.0,0.,24.0
1979-08-03 17:42:06.630 ,7,0,0.,24.0,0.,24.0,0.,24.0,0.,24.0
1979-08-03 17:42:30.630 ,7,1,0.,24.0,0.,24.0,0.,24.0,0.,24.0
1979-08-03 17:42:54.630 ,7,0,0.,24.0,0.,24.0,0.,24.0,0.,24.0
1979-08-03 17:43:18.630 ,6,1,0.,24.0,0.,24.0,0.,24.0,0.,24.0
1979-08-03 17:43:42.630 ,6,0,0.,24.0,0.,24.0,0.,24.0,0.,24.0
1979-08-03 17:44:06.630 ,5,1,0.,24.0,0.,24.0,0.,24.0,0.,24.0
1979-08-03 17:44:30.630 ,5,0,0.,24.0,0.,24.0,0.,24.0,0.,24.0
1979-08-03 17:44:54.630 ,4,1,0.,24.0,0.,24.0,0.,24.0,0.,24.0
1979-08-03 17:45:18.630 ,4,0,0.,24.0,0.,24.0,0.,24.0,0.,24.0
1979-08-03 17:45:42.630 ,3,1,0.,24.0,0.,24.0,0.,24.0,0.,24.0
1979-08-03 17:46:06.630 ,3,0,0.,24.0,0.,24.0,0.,24.0,0.,24.0
1979-08-03 17:46:30.630 ,2,1,0.,24.0,0.,24.0,0.,24.0,0.,24.0
1979-08-03 17:46:54.630 ,2,0,0.,24.0,0.,24.0,0.,24.0,0.,24.0
1979-08-03 17:47:18.630 ,1,1,0.,24.0,0.,24.0,0.,24.0,0.,24.0
1979-08-03 17:47:42.630 ,1,0,0.,24.0,0.,24.0,0.,24.0,0.,24.0
1979-08-03 17:48:06.630 ,0,1,1.,24.0,0.,24.0,0.,24.0,0.,24.0